Location: *
(44.1392°N, 4.8079°E)
Time: 07:12:15
(UTC+00:00)

USA 307 - Pass Details

Date: 21 June 2021
Orbit: 565 x 576 km, 54.0° (Epoch: 17 July)

Event Time Altitude Azimuth Distance (km) Brightness Sun altitude
Exits shadow 00:38:24 42° 127° (SE) 814 3.4 -21.2°
Drops below altitude 10° 00:42:12 10° 65° (ENE) 1,868 6.0 -21.1°
Sets 00:44:32 0° 58° (ENE) 2,767 7.1 -20.9°
